Погода в Лямцеве

Россия / Псковская область     58°31′08″N   29°28′28″E
темп.,
°C
ветер,
м/с
пор.,
м/с
влажн.,
%
обл.,
%
осадки,
мм/ч
давл.,
гПа
погр.,
м
13 апреля, вт
вт1300:00+9ююв31075100 0.0 1020263
03:00+7ююв31080100 0.0 1019249
06:00+5ююв27903 0.0 1020142
09:00+9ю367396 0.0 1020257
12:00+13ююз345776 0.0 1020672
15:00+14зюз335798 0.0 1020725
18:00+12зсз3570100 0.0 1019390
21:00+6ссз4779100 0.0 1020295
14 апреля, ср
ср1400:00+5ссз4874100 0.0 1019386
03:00+3ссз4977100 0.4 1019433
06:00+3с4974100 1.2 1019580
09:00+3с3965100 1.4 1019586
12:00+4ссз3765100 0.1 1020539
15:00+6ссв2657100 0.1 1021627
18:00+6всв1466100 0.0 1021284
21:00+4св2378100 0.0 102367
15 апреля, чт
чт1500:00+3с3978100 0.0 1023284
03:00+3ссв31178100 0.0 1024490
06:00+3ссв41276100 0.0 1024513
09:00+4ссв5127284 0.0 1025531
12:00+8св685491 0.0 1025928
15:00+10св5846100 0.0 10241249
18:00+9св585258 0.0 10251230
21:00
16 апреля, пт
пт1600:00+3св4127274 0.0 1026461
03:00+2св41279100 0.0 1026409
06:00+2св4127796 0.0 1027455
09:00+4св51265100 0.0 1027551
12:00+9всв584671 0.0 1027937
15:00+11всв683567 0.0 10271248
18:00+11св594240 0.0 10271229
21:00+6св4116183 0.0 1030425
17 апреля, сб
сб1700:00+5св4127236 0.0 1030401
03:00+3св311788 0.0 1031322
06:00+2св311815 0.0 1032299
09:00+6всв5105995 0.0 1032559
12:00+10всв5845100 0.0 10331124
15:00+12всв574171 0.0 10321394
18:00+12всв474414 0.0 10321417
21:00+7св28675 0.0 1033160